Weather History for KMBL - May, 2013

Change the Weather History Date:

Tuesday, May 28, 2013

  Actual Average Record
Temperature  
Mean Temperature 58 °F -  
Max Temperature 64 °F 71 °F 89 °F (1978)
Min Temperature 53 °F 48 °F 26 °F (2008)
Degree Days  
Heating Degree Days 6    
Growing Degree Days 8 (Base 50)    
Moisture  
Dew Point 52 °F    
Average Humidity 83    
Maximum Humidity 94    
Minimum Humidity 48    
Precipitation  
Precipitation 0.17 in - - ()
Sea Level Pressure  
Sea Level Pressure 29.84 in    
Wind  
Wind Speed 7 mph (SE)    
Max Wind Speed 13 mph    
Max Gust Speed 16 mph    
Visibility 8 miles    
Events      
Averages and records for this station are not official NWS values.
T = Trace of Precipitation, MM = Missing Value Source: NWS Daily Summary

Daily Weather History Graph

Daily Weather History Graph

Search for Another Location

Airport or City:

Trip Planner

Search our weather history database for the weather conditions in past years. The results will help you decide how hot, cold, wet, or windy it might be!

Date:

Astronomy

May. 28, 2013 Rise Set
Actual Time 6:06 AM EDT 9:18 PM EDT
Civil Twilight 5:31 AM EDT 9:54 PM EDT
Nautical Twilight 4:45 AM EDT 10:39 PM EDT
Astronomical Twilight 3:50 AM EDT 11:35 PM EDT
Moon No Moon Rise 9:57 AM EDT (5/28)
Length of Visible Light 16h 22m
Length of Day
15h 12m
Waning Gibbous, 83% of the Moon is Illuminated
May 28
Waning Gibbous
May 31
Last Quarter
Jun 8
New
Jun 16
First Quarter
Jun 23
Full

Hourly Weather History & Observations

Time (EDT) Temp. Dew Point Humidity Pressure Visibility Wind Dir Wind Speed Gust Speed Precip Events Conditions
12:15 AM 59.0 °F 39.2 °F 48% 29.97 in 10.0 mi ESE 8.1 mph - N/A   Overcast
12:35 AM 57.2 °F 39.2 °F 51% 29.97 in 10.0 mi ESE 10.4 mph - N/A   Overcast
12:55 AM 57.2 °F 41.0 °F 55% 29.96 in 10.0 mi ESE 11.5 mph - N/A   Overcast
1:15 AM 57.2 °F 42.8 °F 59% 29.96 in 10.0 mi ESE 8.1 mph - N/A   Overcast
1:35 AM 57.2 °F 42.8 °F 59% 29.96 in 10.0 mi SE 5.8 mph - N/A   Overcast
1:55 AM 57.2 °F 44.6 °F 63% 29.96 in 10.0 mi SE 6.9 mph - N/A   Overcast
2:15 AM 57.2 °F 44.6 °F 63% 29.95 in 10.0 mi SE 5.8 mph - N/A   Overcast
2:35 AM 57.2 °F 46.4 °F 67% 29.93 in 10.0 mi ESE 9.2 mph - N/A   Overcast
2:55 AM 55.4 °F 46.4 °F 72% 29.93 in 10.0 mi SE 9.2 mph - N/A   Overcast
3:15 AM 55.4 °F 46.4 °F 72% 29.93 in 10.0 mi SE 6.9 mph - N/A   Overcast
3:35 AM 55.4 °F 46.4 °F 72% 29.93 in 10.0 mi SE 3.5 mph - N/A   Overcast
3:55 AM 55.4 °F 46.4 °F 72% 29.91 in 10.0 mi SE 6.9 mph - N/A   Overcast
4:15 AM 55.4 °F 46.4 °F 72% 29.91 in 10.0 mi ESE 8.1 mph - N/A   Overcast
4:35 AM 55.4 °F 46.4 °F 72% 29.91 in 10.0 mi SE 6.9 mph - N/A   Overcast
4:55 AM 55.4 °F 46.4 °F 72% 29.91 in 10.0 mi ESE 6.9 mph - N/A   Overcast
5:15 AM 55.4 °F 46.4 °F 72% 29.91 in 10.0 mi ESE 8.1 mph - N/A   Overcast
5:35 AM 55.4 °F 48.2 °F 77% 29.90 in 10.0 mi ESE 6.9 mph - N/A   Overcast
5:55 AM 55.4 °F 48.2 °F 77% 29.91 in 10.0 mi ESE 6.9 mph - N/A   Overcast
6:15 AM 53.6 °F 48.2 °F 82% 29.91 in 10.0 mi SE 9.2 mph - N/A   Overcast
6:35 AM 53.6 °F 48.2 °F 82% 29.90 in 9.0 mi ESE 9.2 mph - N/A   Overcast
6:55 AM 53.6 °F 48.2 °F 82% 29.90 in 10.0 mi ESE 8.1 mph - N/A   Overcast
7:15 AM 53.6 °F 48.2 °F 82% 29.90 in 10.0 mi ESE 6.9 mph - N/A   Overcast
7:35 AM 53.6 °F 48.2 °F 82% 29.89 in 10.0 mi ESE 6.9 mph - N/A   Overcast
7:55 AM 53.6 °F 48.2 °F 82% 29.87 in 10.0 mi ESE 10.4 mph 16.1 mph N/A   Overcast
8:15 AM 55.4 °F 48.2 °F 77% 29.88 in 10.0 mi SE 6.9 mph - N/A   Overcast
8:35 AM 55.4 °F 48.2 °F 77% 29.87 in 10.0 mi ESE 8.1 mph - N/A   Overcast
8:55 AM 55.4 °F 48.2 °F 77% 29.86 in 10.0 mi ESE 10.4 mph - N/A   Overcast
9:15 AM 55.4 °F 50.0 °F 82% 29.86 in 10.0 mi ESE 9.2 mph - N/A   Overcast
9:35 AM 55.4 °F 50.0 °F 82% 29.86 in 10.0 mi East 8.1 mph - N/A   Overcast
9:55 AM 55.4 °F 50.0 °F 82% 29.86 in 10.0 mi ESE 6.9 mph - N/A   Overcast
10:15 AM 55.4 °F 50.0 °F 82% 29.87 in 10.0 mi SE 5.8 mph - N/A   Overcast
10:35 AM 53.6 °F 51.8 °F 94% 29.85 in 5.0 mi ESE 9.2 mph - 0.05 in   Overcast
10:55 AM 53.6 °F 51.8 °F 94% 29.84 in 5.0 mi East 8.1 mph - 0.11 in   Overcast
11:15 AM 55.4 °F 51.8 °F 88% 29.83 in 5.0 mi ESE 11.5 mph - 0.03 in   Overcast
11:35 AM 55.4 °F 51.8 °F 88% 29.82 in 8.0 mi East 10.4 mph - 0.06 in   Overcast
11:55 AM 55.4 °F 51.8 °F 88% 29.83 in 10.0 mi ESE 9.2 mph - 0.06 in   Overcast
12:15 PM 55.4 °F 53.6 °F 94% 29.79 in 10.0 mi East 12.7 mph - N/A   Overcast
12:35 PM 55.4 °F 53.6 °F 94% 29.82 in 10.0 mi ESE 6.9 mph - N/A   Overcast
12:55 PM 57.2 °F 53.6 °F 88% 29.82 in 10.0 mi ESE 5.8 mph - N/A   Overcast
1:15 PM 57.2 °F 53.6 °F 88% 29.82 in 10.0 mi ESE 4.6 mph - N/A   Overcast
1:35 PM 57.2 °F 55.4 °F 94% 29.81 in 10.0 mi ESE 6.9 mph - N/A   Overcast
1:55 PM 57.2 °F 55.4 °F 94% 29.81 in 10.0 mi SE 6.9 mph - N/A   Overcast
2:15 PM 59.0 °F 55.4 °F 88% 29.80 in 10.0 mi ESE 5.8 mph - N/A   Overcast
2:35 PM 59.0 °F 55.4 °F 88% 29.80 in 10.0 mi ESE 5.8 mph - N/A   Overcast
2:55 PM 59.0 °F 55.4 °F 88% 29.79 in 10.0 mi ESE 5.8 mph - N/A   Overcast
3:15 PM 60.8 °F 57.2 °F 88% 29.80 in 10.0 mi SSE 5.8 mph - N/A   Overcast
3:35 PM 60.8 °F 57.2 °F 88% 29.79 in 8.0 mi SE 3.5 mph - N/A   Overcast
3:55 PM 60.8 °F 57.2 °F 88% 29.79 in 6.0 mi SSE 4.6 mph - N/A   Overcast
4:15 PM 60.8 °F 59.0 °F 94% 29.79 in 5.0 mi Calm Calm - N/A   Overcast
4:35 PM 62.6 °F 59.0 °F 88% 29.79 in 4.0 mi SSE 3.5 mph - N/A   Overcast
4:55 PM 62.6 °F 60.8 °F 94% 29.79 in 4.0 mi SSW 3.5 mph - N/A   Overcast
5:15 PM 62.6 °F 60.8 °F 94% 29.78 in 5.0 mi SSW 6.9 mph - N/A   Overcast
5:35 PM 64.4 °F 60.8 °F 88% 29.78 in 7.0 mi SSW 8.1 mph - N/A   Overcast
5:55 PM 64.4 °F 60.8 °F 88% 29.78 in 6.0 mi West 9.2 mph - N/A   Overcast
6:15 PM 62.6 °F 57.2 °F 82% 29.79 in 5.0 mi WSW 9.2 mph - N/A   Overcast
6:35 PM 62.6 °F 57.2 °F 82% 29.79 in 5.0 mi West 9.2 mph - N/A   Overcast
6:55 PM 60.8 °F 57.2 °F 88% 29.79 in 5.0 mi WSW 10.4 mph - N/A   Overcast
7:15 PM 60.8 °F 55.4 °F 82% 29.78 in 5.0 mi WSW 6.9 mph - N/A   Overcast
7:35 PM 60.8 °F 57.2 °F 88% 29.79 in 5.0 mi WSW 4.6 mph - N/A   Overcast
7:55 PM 60.8 °F 57.2 °F 88% 29.79 in 5.0 mi SW 4.6 mph - N/A   Overcast
8:15 PM 59.0 °F 57.2 °F 94% 29.78 in 4.0 mi SSW 3.5 mph - N/A   Overcast
8:35 PM 59.0 °F 57.2 °F 94% 29.79 in 3.0 mi Calm Calm - N/A   Overcast
8:55 PM 59.0 °F 57.2 °F 94% 29.77 in 2.0 mi Calm Calm - N/A   Overcast
9:15 PM 59.0 °F 57.2 °F 94% 29.76 in 2.0 mi Calm Calm - N/A   Overcast
9:35 PM 59.0 °F 57.2 °F 94% 29.78 in 2.5 mi Calm Calm - N/A   Overcast
9:55 PM 59.0 °F 57.2 °F 94% 29.78 in 1.2 mi Calm Calm - N/A   Overcast
10:15 PM 59.0 °F 57.2 °F 94% 29.77 in 1.0 mi SE 3.5 mph - N/A   Overcast
10:35 PM 59.0 °F 57.2 °F 94% 29.76 in 1.8 mi Calm Calm - N/A   Overcast
10:55 PM 59.0 °F 57.2 °F 94% 29.78 in 2.0 mi Calm Calm - N/A   Overcast
11:15 PM 59.0 °F 57.2 °F 94% 29.79 in 2.5 mi Calm Calm - N/A   Overcast
11:35 PM 59.0 °F 57.2 °F 94% 29.77 in 2.5 mi Calm Calm - N/A   Overcast
11:55 PM 59.0 °F 57.2 °F 94% 29.78 in 2.0 mi Calm Calm - N/A   Overcast